TimeEDT,TemperatureF,Dew PointF,Humidity,Sea Level PressureIn,VisibilityMPH,Wind Direction,Wind SpeedMPH,Gust SpeedMPH,PrecipitationIn,Events,Conditions,WindDirDegrees,DateUTC
12:56 AM,48.9,30.0,48,30.01,10.0,WNW,11.5,-,N/A,,Clear,290,2013-05-13 04:56:00
1:56 AM,48.9,30.0,48,30.01,10.0,West,9.2,-,N/A,,Clear,270,2013-05-13 05:56:00
2:56 AM,46.9,30.0,52,30.00,10.0,WNW,8.1,-,N/A,,Clear,290,2013-05-13 06:56:00
3:56 AM,45.0,30.0,56,30.01,10.0,NNW,6.9,-,N/A,,Scattered Clouds,330,2013-05-13 07:56:00
4:56 AM,45.0,30.9,58,30.03,10.0,NW,8.1,-,N/A,,Mostly Cloudy,310,2013-05-13 08:56:00
5:56 AM,44.1,30.0,58,30.03,10.0,NNW,8.1,-,N/A,,Mostly Cloudy,330,2013-05-13 09:56:00
6:56 AM,44.1,28.0,53,30.06,10.0,NNW,8.1,-,N/A,,Overcast,330,2013-05-13 10:56:00
7:56 AM,45.0,27.0,49,30.08,10.0,NNW,10.4,-,N/A,,Mostly Cloudy,330,2013-05-13 11:56:00
8:56 AM,48.0,28.0,46,30.09,10.0,NW,10.4,-,N/A,,Partly Cloudy,310,2013-05-13 12:56:00
9:56 AM,48.0,28.0,46,30.10,10.0,WNW,9.2,21.9,N/A,,Scattered Clouds,300,2013-05-13 13:56:00
10:56 AM,48.9,28.0,44,30.10,10.0,WNW,12.7,18.4,N/A,,Overcast,300,2013-05-13 14:56:00
11:56 AM,50.0,30.0,46,30.11,10.0,WNW,15.0,23.0,N/A,,Mostly Cloudy,300,2013-05-13 15:56:00
12:56 PM,50.0,28.0,43,30.10,10.0,WNW,13.8,24.2,N/A,,Scattered Clouds,290,2013-05-13 16:56:00
1:56 PM,52.0,26.1,37,30.08,10.0,WNW,15.0,24.2,N/A,,Scattered Clouds,290,2013-05-13 17:56:00
2:56 PM,52.0,25.0,35,30.07,10.0,WNW,17.3,21.9,N/A,,Mostly Cloudy,300,2013-05-13 18:56:00
4:56 PM,53.1,24.1,32,30.06,10.0,NNW,13.8,24.2,N/A,,Mostly Cloudy,330,2013-05-13 20:56:00
5:56 PM,53.1,26.1,35,30.06,10.0,NW,17.3,28.8,N/A,,Mostly Cloudy,320,2013-05-13 21:56:00
6:56 PM,51.1,24.1,35,30.06,10.0,NNW,15.0,19.6,N/A,,Mostly Cloudy,330,2013-05-13 22:56:00
7:56 PM,50.0,23.0,35,30.08,10.0,NNW,9.2,18.4,N/A,,Partly Cloudy,330,2013-05-13 23:56:00
8:56 PM,48.0,23.0,37,30.10,10.0,NNW,8.1,-,N/A,,Partly Cloudy,330,2013-05-14 00:56:00
9:56 PM,46.9,24.1,41,30.13,10.0,NNW,6.9,-,N/A,,Partly Cloudy,330,2013-05-14 01:56:00
10:56 PM,45.0,27.0,49,30.15,10.0,NNW,3.5,-,N/A,,Clear,340,2013-05-14 02:56:00
11:56 PM,43.0,28.0,56,30.17,10.0,NNW,4.6,-,N/A,,Clear,340,2013-05-14 03:56:00